Wind_Speed
105 106 108 106 104 103 101 96 91 76 83 90 82 68 68 74 79 77 77 81 79 75 81 77 75 74 75 74 72 75 73 67 64 60 65 70 64 63 63 55 63 72 74 78
101 100 95 88 81 86 83 76 71 62 68 64 57 56 58 62 61 60 62 59 61 60 56 58 57 58 61 58 59 58 56 54 54 50 51 50 49 58 56 63 67 69 76 75
84 83 73 69 67 65 61 62 59 52 49 53 46 47 48 53 56 57 55 50 52 50 47 47 46 42 39 35 34 39 40 37 37 35 36 51 56 58 65 63 62 68 68 63
70 63 59 58 54 54 52 49 44 44 43 45 43 45 48 48 47 46 45 47 45 39 42 38 40 39 32 32 30 26 26 35 26 39 46 52 54 47 49 58 58 54 52 57
64 55 59 47 51 47 44 44 42 42 42 41 40 40 40 45 43 42 41 38 40 32 35 37 35 28 29 29 28 31 39 40 42 43 45 42 45 49 49 46 41 47 53 57
51 55 49 48 48 47 45 45 43 42 32 33 31 30 37 41 43 42 37 32 27 29 28 29 26 25 26 28 33 35 31 31 41 42 43 45 44 40 38 35 44 50 55 55
52 50 48 47 45 43 42 40 35 27 25 24 28 31 32 35 37 34 29 29 30 33 32 31 28 26 27 33 35 32 34 39 47 44 36 38 43 34 33 39 47 54 55 53
49 48 49 44 43 40 35 32 28 26 28 27 27 29 32 33 31 33 32 36 36 37 34 29 29 31 30 36 36 36 38 37 34 36 37 30 33 33 37 47 52 55 55 55
48 50 48 43 40 34 31 29 32 33 35 40 40 42 41 40 39 33 36 33 33 44 40 37 33 33 34 31 33 33 36 37 34 25 26 29 33 32 41 49 55 58 56 56
49 51 45 42 36 34 30 28 33 39 43 41 42 39 40 39 37 41 39 36 33 33 37 42 34 34 34 32 33 29 28 25 27 29 29 28 32 35 47 53 58 58 59 59
52 50 46 42 40 32 33 37 29 33 39 33 40 43 39 35 31 24 27 32 35 34 35 35 37 32 29 29 29 26 25 27 29 30 28 30 32 44 52 56 56 58 58 58
55 51 49 46 41 37 38 39 36 35 33 37 41 39 35 32 27 21 19 20 23 29 30 29 26 26 26 24 25 25 27 29 31 30 33 32 43 50 55 57 58 58 57 58
55 52 47 49 48 39 33 34 36 37 38 37 35 34 34 31 26 19 17 21 22 24 23 22 28 28 26 21 23 27 29 30 31 35 36 42 50 53 54 57 58 60 58 54
57 54 52 52 48 42 38 46 44 42 41 38 37 36 35 31 27 23 22 22 23 21 21 20 23 25 25 26 28 29 29 32 37 41 44 53 51 55 56 60 60 59 53 49
57 56 56 55 53 52 49 48 47 46 42 37 36 35 32 31 26 25 23 19 16 18 20 21 19 22 27 29 28 31 34 36 41 47 52 52 57 58 61 60 60 55 51 48
62 58 58 56 53 44 44 46 44 46 37 34 31 30 32 30 25 25 23 23 20 16 17 21 24 24 28 31 31 32 36 41 45 46 49 55 60 62 63 61 57 53 49 48
65 61 60 55 52 49 50 50 50 45 36 32 28 30 30 28 26 26 25 26 24 24 22 23 24 24 26 28 32 34 38 41 44 48 53 58 61 63 61 57 55 51 48 43
64 61 56 57 53 51 46 45 40 39 38 33 30 28 27 24 21 20 19 23 30 28 30 29 28 30 31 31 34 35 36 39 44 49 55 59 62 61 61 56 51 48 43 38
67 64 60 60 57 51 45 42 39 37 38 35 28 28 22 18 20 18 16 18 20 24 29 33 35 36 36 31 30 32 37 39 46 52 59 61 62 61 59 53 50 45 37 34
67 64 60 58 56 50 46 43 37 35 39 32 29 26 23 17 16 17 17 16 16 17 18 21 23 25 27 28 32 34 38 44 49 55 59 63 58 60 55 51 47 39 34 31
70 66 61 55 54 51 46 40 36 35 37 32 27 27 27 22 16 14 20 19 17 18 20 22 24 26 27 29 33 35 40 46 51 57 60 61 63 57 52 52 45 36 32 31
71 68 62 57 53 49 48 43 37 35 35 34 31 32 32 28 22 20 18 20 20 22 22 24 28 28 30 31 34 37 41 48 54 59 62 63 63 53 52 51 42 35 32 30
72 63 58 54 47 45 45 47 46 46 43 41 38 36 37 34 28 24 22 25 23 22 27 29 27 27 28 31 36 39 45 52 56 58 62 65 58 51 50 47 38 34 31 29
71 64 59 54 52 53 51 51 50 47 43 42 41 39 39 35 31 27 27 28 30 30 30 33 32 32 34 35 38 43 49 53 56 57 62 63 54 51 47 43 35 32 28 27
64 64 65 62 61 58 55 52 50 51 50 47 46 44 41 37 34 31 33 33 33 32 34 33 35 36 37 38 40 45 50 53 55 59 62 61 56 52 46 41 33 29 27 25
53 57 65 69 67 63 62 61 59 55 52 52 47 44 44 45 43 40 36 34 33 35 35 35 37 38 40 41 43 47 50 53 56 59 60 61 57 53 48 46 42 34 29 27
50 53 57 59 60 59 57 55 53 53 52 51 48 46 47 46 46 46 45 42 39 39 39 40 41 41 42 43 45 47 49 51 55 59 60 60 57 52 49 47 47 45 40 35
Wind_Direction
261 263 263 264 267 268 269 265 263 262 261 262 264 266 262 257 260 262 264 266 266 266 263 263 263 262 262 262 261 260 262 260 259 259 255 259 265 272 277 274 273 284 287 291
263 265 266 267 265 264 264 264 263 259 259 263 263 256 253 254 259 259 257 255 256 255 256 257 260 263 264 261 256 253 250 251 252 251 254 257 257 261 265 268 276 281 286 291
263 263 265 263 260 261 262 257 256 256 252 252 249 240 238 243 246 250 251 249 248 252 253 255 258 256 252 249 243 239 239 243 245 241 237 240 252 260 262 272 274 282 287 289
261 262 263 259 257 254 252 255 250 244 241 245 243 242 239 242 248 249 248 246 247 245 248 248 246 245 242 238 223 212 206 217 221 229 234 242 255 259 262 269 276 281 287 290
259 258 254 252 249 244 242 237 236 230 235 241 242 243 245 241 239 240 239 238 241 240 239 239 241 233 222 221 218 212 210 219 227 229 237 237 248 253 264 272 278 289 292 294
248 244 244 238 235 230 223 230 234 233 228 228 236 241 236 237 238 237 237 240 229 218 217 204 197 195 196 197 203 207 211 230 228 230 244 255 258 264 269 273 285 289 291 295
235 235 230 227 226 225 222 221 227 228 217 224 228 233 228 230 229 229 213 198 188 172 182 186 175 177 189 201 205 209 225 233 232 246 247 253 269 265 270 284 286 290 291 297
226 222 221 219 217 213 211 216 213 217 217 220 222 204 200 201 202 192 187 178 172 176 178 180 182 188 201 203 211 221 226 233 239 244 253 255 258 268 283 286 288 290 295 300
214 213 211 211 206 201 197 199 200 199 199 193 193 188 190 185 190 189 173 172 181 182 188 192 194 200 206 211 219 229 235 242 248 243 244 248 267 277 286 286 288 293 295 299
205 204 203 198 192 182 177 192 206 199 190 191 188 192 187 192 185 184 182 183 187 194 201 201 209 219 215 222 235 237 233 234 241 243 246 255 270 285 284 286 290 295 296 298
197 197 194 187 176 174 176 180 191 191 185 183 184 185 185 186 186 190 197 199 200 201 204 206 213 225 225 226 226 228 235 242 247 252 257 261 284 284 284 287 294 294 297 298
191 192 186 179 167 174 173 177 182 182 181 180 181 174 166 165 169 175 193 201 205 204 205 207 211 212 206 212 227 236 241 246 253 260 263 278 284 283 285 292 294 298 299 296
188 185 180 170 172 173 171 166 163 167 169 171 173 170 173 178 177 178 198 202 197 203 206 210 211 207 210 226 242 242 247 253 259 264 270 280 280 286 293 294 297 302 297 295
184 179 174 170 171 172 172 165 171 174 175 178 180 183 186 189 191 194 208 214 212 216 213 211 213 214 221 238 245 248 253 260 265 267 275 275 287 290 296 298 304 301 297 291
181 178 173 171 174 176 175 176 178 176 177 180 186 190 194 193 196 199 203 203 200 207 214 211 217 228 232 237 245 255 262 266 266 270 278 287 290 297 301 307 306 300 296 291
180 178 178 177 174 169 177 181 180 182 179 185 188 192 197 202 208 218 227 227 220 208 204 214 227 234 240 245 252 260 267 273 282 288 286 289 295 300 307 312 305 302 296 289
182 182 181 176 173 175 184 187 185 187 191 180 176 187 193 200 208 217 222 226 225 219 220 227 235 243 248 254 261 271 275 279 283 286 291 295 299 305 315 311 306 303 298 291
185 184 180 181 179 179 182 183 180 179 180 183 180 186 192 205 213 217 217 226 228 228 234 239 243 254 259 265 272 274 278 283 289 293 296 301 305 314 318 311 308 306 300 292
187 187 187 187 184 182 183 183 179 180 186 183 184 187 184 199 212 220 227 235 237 238 242 248 251 254 264 266 268 277 284 288 292 295 299 304 312 321 317 312 313 308 301 294
191 193 190 188 185 185 187 185 189 186 185 190 194 193 195 206 219 223 229 224 224 232 239 243 246 249 259 263 272 280 284 289 293 297 305 310 317 324 316 317 314 309 301 293
194 198 196 192 193 194 190 188 194 194 186 192 198 208 213 214 219 228 227 229 235 240 246 251 253 256 261 269 274 281 286 292 296 300 309 313 322 323 319 321 315 307 300 292
199 199 199 198 197 195 194 191 197 205 205 208 215 226 225 223 227 230 243 240 251 252 250 253 258 263 267 270 277 283 288 292 296 306 310 315 323 324 324 322 315 309 303 294
203 204 202 200 199 203 201 198 205 210 216 220 223 227 224 226 237 244 256 245 252 266 261 257 263 269 276 278 283 283 288 294 302 308 310 316 324 327 325 323 316 310 302 296
205 207 208 208 211 212 212 211 213 214 220 228 228 225 223 227 235 243 257 255 259 271 271 269 267 273 279 282 283 286 292 298 305 308 310 316 324 328 326 327 318 310 303 299
206 210 212 214 218 219 221 222 225 231 234 231 227 229 229 232 240 251 259 261 267 267 268 271 270 277 280 281 285 290 295 301 305 306 309 317 324 326 326 329 326 315 306 300
201 206 211 216 219 222 227 232 231 225 228 225 228 230 233 239 243 255 256 259 260 267 267 270 274 280 283 285 288 291 297 301 303 305 311 317 321 323 327 330 331 327 317 310
198 200 204 208 212 215 215 215 217 219 222 223 226 231 236 239 245 251 254 257 258 269 274 270 275 280 283 284 288 292 296 300 302 304 311 315 318 320 324 328 329 328 324 319
Height
10274 10278 10281 10285 10290 10282 10281 10287 10295 10316 10300 10298 10316 10339 10334 10325 10324 10332 10343 10346 10354 10360 10360 10365 10367 10369 10370 10378 10385 10389 10397 10409 10418 10428 10433 10437 10441 10440 10441 10444 10442 10440 10438 10440
10250 10253 10259 10265 10262 10257 10263 10271 10278 10285 10280 10291 10304 10308 10310 10306 10311 10316 10321 10329 10332 10336 10343 10346 10349 10352 10354 10360 10364 10371 10381 10392 10400 10409 10418 10422 10428 10430 10431 10432 10432 10428 10425 10423
10226 10230 10240 10241 10241 10243 10247 10247 10256 10265 10270 10269 10283 10285 10289 10292 10295 10299 10306 10315 10317 10323 10328 10332 10337 10342 10345 10348 10354 10359 10369 10378 10387 10396 10406 10412 10415 10420 10419 10421 10420 10418 10411 10408
10205 10212 10219 10219 10224 10229 10231 10236 10245 10249 10253 10257 10266 10269 10275 10279 10285 10291 10297 10301 10307 10312 10316 10324 10326 10329 10335 10340 10345 10353 10362 10371 10381 10390 10396 10401 10406 10408 10409 10409 10408 10407 10402 10396
10189 10198 10196 10206 10208 10214 10219 10225 10231 10234 10241 10248 10255 10260 10268 10271 10275 10281 10285 10291 10293 10304 10310 10314 10316 10322 10327 10333 10340 10348 10357 10365 10372 10380 10385 10391 10395 10397 10400 10399 10396 10394 10390 10385
10174 10177 10185 10190 10195 10201 10205 10212 10218 10224 10235 10243 10248 10251 10255 10260 10266 10272 10277 10282 10291 10296 10301 10306 10311 10318 10324 10330 10338 10346 10354 10359 10365 10371 10379 10383 10382 10387 10389 10389 10387 10383 10379 10375
10155 10164 10169 10177 10184 10192 10200 10205 10210 10219 10226 10232 10234 10243 10249 10255 10259 10264 10270 10275 10282 10290 10296 10302 10308 10313 10321 10330 10335 10340 10347 10353 10359 10365 10371 10374 10374 10377 10380 10379 10376 10372 10367 10364
10142 10150 10157 10168 10178 10186 10193 10200 10205 10212 10218 10226 10234 10240 10246 10250 10256 10262 10265 10273 10280 10285 10289 10298 10305 10311 10319 10324 10331 10337 10342 10348 10354 10359 10364 10368 10366 10369 10369 10367 10363 10360 10355 10351
10130 10139 10150 10162 10172 10180 10188 10195 10200 10207 10215 10219 10227 10233 10240 10247 10253 10260 10268 10273 10276 10280 10288 10297 10304 10310 10316 10322 10326 10333 10339 10344 10349 10354 10359 10361 10357 10361 10360 10356 10351 10347 10344 10340
10121 10132 10144 10157 10168 10177 10182 10190 10199 10204 10209 10217 10227 10234 10241 10248 10255 10262 10267 10271 10276 10283 10289 10296 10302 10308 10314 10320 10324 10328 10334 10339 10343 10347 10351 10353 10350 10352 10348 10344 10341 10336 10332 10328
10114 10126 10141 10154 10165 10173 10179 10191 10201 10206 10211 10220 10229 10238 10245 10252 10259 10263 10267 10273 10278 10282 10288 10294 10300 10306 10311 10315 10321 10325 10331 10334 10337 10340 10342 10343 10342 10340 10336 10334 10331 10325 10320 10315
10109 10123 10138 10151 10160 10171 10180 10190 10201 10208 10217 10221 10227 10235 10243 10250 10254 10259 10264 10270 10276 10281 10285 10291 10298 10302 10306 10313 10318 10322 10325 10328 10330 10332 10332 10332 10329 10327 10323 10321 10318 10312 10305 10299
10107 10122 10137 10147 10159 10171 10181 10192 10202 10211 10217 10223 10231 10237 10243 10249 10255 10261 10265 10270 10274 10279 10285 10291 10294 10299 10304 10310 10314 10317 10319 10320 10323 10323 10322 10320 10316 10315 10312 10307 10302 10296 10289 10284
10106 10122 10135 10146 10160 10171 10181 10193 10203 10210 10217 10223 10229 10236 10241 10248 10254 10259 10263 10269 10273 10278 10283 10287 10293 10298 10303 10307 10308 10311 10313 10313 10313 10313 10310 10307 10307 10303 10300 10294 10286 10277 10272 10268
10106 10121 10133 10145 10156 10167 10179 10189 10198 10206 10216 10223 10229 10235 10242 10248 10253 10258 10263 10268 10272 10276 10280 10285 10290 10294 10298 10301 10304 10305 10306 10307 10305 10301 10301 10298 10293 10290 10284 10277 10268 10261 10255 10251
10106 10119 10132 10143 10156 10170 10182 10191 10200 10207 10215 10221 10228 10235 10242 10248 10253 10258 10263 10267 10271 10274 10278 10282 10286 10291 10294 10296 10299 10300 10299 10298 10295 10294 10289 10285 10281 10276 10270 10261 10250 10243 10239 10234
10103 10117 10128 10143 10156 10166 10175 10185 10195 10205 10213 10220 10227 10233 10240 10246 10251 10256 10260 10264 10268 10272 10276 10280 10283 10287 10289 10291 10292 10293 10291 10290 10286 10283 10278 10273 10268 10263 10255 10245 10235 10227 10221 10219
10102 10116 10131 10144 10154 10164 10174 10185 10195 10203 10211 10218 10225 10232 10238 10244 10248 10252 10256 10259 10264 10268 10272 10275 10278 10281 10283 10284 10284 10284 10282 10280 10276 10273 10268 10262 10256 10248 10239 10229 10221 10214 10207 10202
10102 10114 10125 10136 10149 10162 10174 10183 10193 10201 10210 10217 10224 10230 10235 10240 10245 10249 10252 10256 10259 10263 10266 10269 10273 10274 10276 10277 10276 10275 10272 10270 10266 10261 10256 10250 10244 10236 10225 10216 10208 10200 10195 10190
10103 10112 10124 10136 10150 10162 10171 10180 10189 10200 10208 10214 10221 10228 10233 10239 10243 10246 10249 10252 10255 10257 10261 10262 10265 10267 10268 10269 10267 10266 10263 10259 10256 10251 10246 10238 10231 10223 10212 10204 10196 10189 10184 10181
10100 10110 10123 10137 10148 10159 10170 10180 10189 10198 10204 10211 10219 10225 10231 10235 10239 10243 10246 10248 10250 10252 10255 10256 10258 10259 10260 10260 10258 10257 10254 10249 10245 10241 10234 10227 10220 10212 10201 10192 10184 10179 10175 10172
10096 10107 10121 10133 10146 10157 10168 10178 10187 10194 10200 10207 10214 10219 10225 10229 10234 10237 10240 10243 10244 10246 10248 10250 10250 10252 10252 10252 10250 10248 10245 10240 10235 10230 10223 10215 10209 10201 10191 10182 10174 10170 10166 10163
10093 10108 10121 10133 10148 10160 10169 10176 10181 10186 10193 10200 10206 10213 10219 10224 10228 10231 10234 10237 10238 10240 10242 10242 10244 10245 10245 10244 10242 10239 10235 10231 10226 10220 10212 10205 10200 10191 10183 10174 10166 10161 10157 10154
10098 10110 10124 10138 10148 10153 10160 10166 10172 10182 10190 10196 10203 10209 10212 10217 10221 10225 10228 10230 10231 10233 10234 10234 10237 10236 10236 10235 10233 10230 10226 10221 10216 10211 10204 10197 10190 10183 10175 10167 10159 10154 10150 10146
10099 10111 10122 10130 10136 10145 10152 10161 10170 10177 10185 10192 10197 10201 10207 10212 10215 10218 10221 10222 10224 10224 10224 10227 10227 10227 10227 10226 10224 10220 10216 10211 10207 10201 10195 10188 10181 10174 10167 10159 10153 10148 10143 10139
10098 10108 10116 10124 10133 10140 10149 10156 10163 10171 10179 10186 10190 10195 10199 10203 10208 10210 10212 10214 10214 10216 10218 10218 10218 10218 10217 10216 10214 10211 10206 10201 10196 10190 10185 10179 10173 10166 10159 10151 10144 10140 10136 10132
10094 10100 10107 10115 10122 10131 10140 10149 10158 10165 10172 10178 10182 10186 10191 10194 10198 10200 10203 10204 10206 10208 10209 10209 10208 10208 10208 10206 10203 10201 10197 10193 10187 10181 10176 10170 10165 10159 10152 10146 10139 10133 10128 10124